| time (UTC) | temp F | wind direction | speed MPH | gust MPH | rain 1hr in | rain 24hr in | rain mn in | humidity % | barometer mb |
| 20260507114617 | 45 | 214 | 0.0 | 0.0 | 0.00 | 0.01 | 0.00 | 78 | 1013.0 |
| 20260507114131 | 45 | 216 | 0.0 | 0.0 | 0.00 | 0.01 | 0.00 | 79 | 1012.9 |
| 20260507113624 | 44 | 216 | 0.0 | 0.0 | 0.00 | 0.01 | 0.00 | 81 | 1013.0 |
| 20260507113137 | 44 | 216 | 0.0 | 0.0 | 0.00 | 0.01 | 0.00 | 83 | 1013.0 |
| 20260507112625 | 43 | 216 | 0.0 | 0.0 | 0.00 | 0.01 | 0.00 | 84 | 1012.9 |
| 20260507112118 | 42 | 216 | 0.0 | 0.0 | 0.00 | 0.01 | 0.00 | 85 | 1012.8 |
| 20260507111633 | 41 | 216 | 0.0 | 0.0 | 0.00 | 0.01 | 0.00 | 85 | 1012.7 |
| 20260507111143 | 40 | 216 | 0.0 | 0.0 | 0.00 | 0.01 | 0.00 | 85 | 1012.7 |
| 20260507110636 | 40 | 216 | 0.0 | 1.0 | 0.00 | 0.01 | 0.00 | 86 | 1012.7 |
| 20260507110122 | 40 | 216 | 0.0 | 1.0 | 0.00 | 0.01 | 0.00 | 86 | 1012.6 |
| 20260507105618 | 39 | 216 | 0.0 | 0.0 | 0.00 | 0.01 | 0.00 | 86 | 1012.5 |
| 20260507105132 | 38 | 216 | 0.0 | 2.0 | 0.00 | 0.01 | 0.00 | 86 | 1012.4 |
| 20260507104616 | 38 | 216 | 1.0 | 3.0 | 0.00 | 0.01 | 0.00 | 86 | 1012.5 |
| 20260507104132 | 37 | 216 | 0.0 | 3.0 | 0.00 | 0.01 | 0.00 | 86 | 1012.4 |
| 20260507103640 | 37 | 218 | 0.0 | 3.0 | 0.00 | 0.01 | 0.00 | 86 | 1012.3 |
| 20260507103134 | 37 | 218 | 1.0 | 3.0 | 0.00 | 0.01 | 0.00 | 85 | 1012.3 |
| 20260507102622 | 37 | 153 | 0.0 | 0.0 | 0.00 | 0.01 | 0.00 | 85 | 1012.2 |
| 20260507102134 | 38 | 153 | 0.0 | 0.0 | 0.00 | 0.01 | 0.00 | 85 | 1012.2 |
| 20260507101621 | 38 | 153 | 0.0 | 0.0 | 0.00 | 0.01 | 0.00 | 85 | 1012.2 |
| 20260507101137 | 38 | 153 | 0.0 | 0.0 | 0.00 | 0.01 | 0.00 | 84 | 1012.2 |
| 20260507100627 | 38 | 153 | 0.0 | 0.0 | 0.00 | 0.01 | 0.00 | 84 | 1012.2 |
| 20260507100142 | 38 | 151 | 0.0 | 0.0 | 0.00 | 0.01 | 0.00 | 84 | 1012.2 |
| 20260507095616 | 39 | 119 | 0.0 | 0.0 | 0.00 | 0.01 | 0.00 | 83 | 1012.2 |
| 20260507095130 | 39 | 118 | 0.0 | 0.0 | 0.00 | 0.01 | 0.00 | 82 | 1012.1 |
| 20260507094624 | 39 | 118 | 0.0 | 0.0 | 0.00 | 0.01 | 0.00 | 82 | 1012.1 |
| 20260507094119 | 40 | 113 | 0.0 | 0.0 | 0.00 | 0.01 | 0.00 | 81 | 1012.2 |
| 20260507093633 | 40 | 77 | 0.0 | 0.0 | 0.00 | 0.01 | 0.00 | 80 | 1012.2 |
| 20260507093121 | 40 | 76 | 0.0 | 0.0 | 0.00 | 0.01 | 0.00 | 78 | 1012.2 |
| 20260507092635 | 41 | 76 | 0.0 | 0.0 | 0.00 | 0.01 | 0.00 | 76 | 1012.1 |
| 20260507092121 | 41 | 76 | 0.0 | 0.0 | 0.00 | 0.01 | 0.00 | 75 | 1012.1 |
| 20260507091655 | 42 | 76 | 0.0 | 0.0 | 0.00 | 0.01 | 0.00 | 73 | 1012.1 |
| 20260507091122 | 43 | 76 | 0.0 | 0.0 | 0.00 | 0.01 | 0.00 | 72 | 1012.1 |
| 20260507090653 | 43 | 76 | 0.0 | 0.0 | 0.00 | 0.01 | 0.01 | 71 | 1012.0 |
| 20260507090140 | 44 | 76 | 0.0 | 4.0 | 0.00 | 0.01 | 0.01 | 70 | 1011.9 |
| 20260507085636 | 45 | 76 | 1.0 | 4.0 | 0.00 | 0.01 | 0.01 | 68 | 1011.9 |
| 20260507085122 | 45 | 77 | 2.0 | 5.0 | 0.00 | 0.01 | 0.01 | 66 | 1011.9 |
| 20260507084657 | 45 | 68 | 3.0 | 5.0 | 0.00 | 0.01 | 0.01 | 68 | 1011.9 |
| 20260507084123 | 46 | 60 | 1.0 | 3.0 | 0.00 | 0.01 | 0.01 | 66 | 1011.8 |
| 20260507083616 | 46 | 63 | 0.0 | 4.0 | 0.00 | 0.01 | 0.01 | 65 | 1011.8 |
| 20260507083127 | 46 | 65 | 1.0 | 4.0 | 0.00 | 0.01 | 0.01 | 65 | 1011.8 |
| 20260507082621 | 46 | 87 | 1.0 | 4.0 | 0.00 | 0.01 | 0.01 | 64 | 1011.8 |
| 20260507082115 | 46 | 78 | 1.0 | 8.0 | 0.00 | 0.01 | 0.01 | 65 | 1011.8 |
| 20260507081629 | 46 | 79 | 4.0 | 8.0 | 0.00 | 0.01 | 0.01 | 65 | 1011.8 |
| 20260507081124 | 46 | 70 | 2.0 | 7.0 | 0.00 | 0.01 | 0.01 | 66 | 1011.8 |
| 20260507080618 | 47 | 68 | 2.0 | 7.0 | 0.00 | 0.01 | 0.01 | 65 | 1011.8 |
| 20260507080131 | 47 | 93 | 2.0 | 9.0 | 0.00 | 0.01 | 0.01 | 65 | 1011.7 |
| 20260507075627 | 47 | 67 | 4.0 | 9.0 | 0.00 | 0.01 | 0.01 | 65 | 1011.7 |
| 20260507075142 | 47 | 62 | 4.0 | 6.0 | 0.00 | 0.01 | 0.01 | 65 | 1011.6 |
| 20260507074644 | 47 | 62 | 4.0 | 6.0 | 0.00 | 0.01 | 0.01 | 64 | 1011.6 |
| 20260507074137 | 47 | 86 | 1.0 | 6.0 | 0.00 | 0.01 | 0.01 | 64 | 1011.7 |
| 20260507073623 | 47 | 70 | 4.0 | 9.0 | 0.00 | 0.01 | 0.01 | 65 | 1011.7 |
| 20260507073137 | 47 | 60 | 4.0 | 9.0 | 0.00 | 0.01 | 0.01 | 64 | 1011.7 |
| 20260507072645 | 47 | 60 | 4.0 | 7.0 | 0.00 | 0.01 | 0.01 | 65 | 1011.7 |
| 20260507072157 | 47 | 46 | 4.0 | 7.0 | 0.00 | 0.01 | 0.01 | 65 | 1011.7 |
| 20260507071625 | 47 | 51 | 3.0 | 8.0 | 0.00 | 0.01 | 0.01 | 65 | 1011.9 |
| 20260507071121 | 47 | 58 | 3.0 | 6.0 | 0.00 | 0.01 | 0.01 | 65 | 1011.9 |
| 20260507070634 | 47 | 35 | 2.0 | 6.0 | 0.00 | 0.01 | 0.01 | 64 | 1011.9 |
| 20260507070122 | 47 | 73 | 2.0 | 4.0 | 0.00 | 0.01 | 0.01 | 65 | 1011.9 |
| 20260507065658 | 47 | 66 | 0.0 | 3.0 | 0.00 | 0.01 | 0.01 | 65 | 1012.0 |
| 20260507065123 | 47 | 66 | 0.0 | 5.0 | 0.00 | 0.01 | 0.01 | 64 | 1012.0 |
| 20260507064618 | 47 | 68 | 3.0 | 5.0 | 0.00 | 0.01 | 0.01 | 64 | 1012.0 |
| 20260507064130 | 47 | 58 | 0.0 | 5.0 | 0.00 | 0.01 | 0.01 | 64 | 1012.1 |
| 20260507063623 | 47 | 41 | 0.0 | 6.0 | 0.00 | 0.01 | 0.01 | 63 | 1012.1 |
| 20260507063117 | 48 | 52 | 2.0 | 6.0 | 0.00 | 0.01 | 0.01 | 66 | 1012.2 |
| 20260507062632 | 48 | 53 | 0.0 | 6.0 | 0.00 | 0.01 | 0.01 | 66 | 1012.2 |
| 20260507062119 | 48 | 53 | 1.0 | 6.0 | 0.00 | 0.01 | 0.01 | 65 | 1012.2 |
| 20260507061654 | 48 | 61 | 1.0 | 4.0 | 0.00 | 0.01 | 0.01 | 66 | 1012.2 |
| 20260507061123 | 48 | 60 | 0.0 | 2.0 | 0.00 | 0.01 | 0.01 | 66 | 1012.2 |
| 20260507060636 | 49 | 75 | 0.0 | 5.0 | 0.00 | 0.01 | 0.01 | 65 | 1012.2 |
| 20260507060121 | 48 | 73 | 3.0 | 5.0 | 0.00 | 0.01 | 0.01 | 68 | 1012.2 |
| 20260507055634 | 49 | 49 | 0.0 | 1.0 | 0.00 | 0.01 | 0.01 | 70 | 1012.2 |
| 20260507055120 | 49 | 49 | 0.0 | 1.0 | 0.00 | 0.01 | 0.01 | 69 | 1012.3 |
| 20260507054655 | 49 | 49 | 0.0 | 4.0 | 0.00 | 0.01 | 0.01 | 68 | 1012.3 |
| 20260507054122 | 49 | 48 | 1.0 | 5.0 | 0.00 | 0.01 | 0.01 | 70 | 1012.3 |
| 20260507053655 | 49 | 35 | 1.0 | 5.0 | 0.00 | 0.01 | 0.01 | 70 | 1012.4 |
| 20260507053121 | 49 | 49 | 0.0 | 6.0 | 0.00 | 0.01 | 0.01 | 71 | 1012.4 |
| 20260507052638 | 49 | 17 | 2.0 | 6.0 | 0.00 | 0.01 | 0.01 | 71 | 1012.3 |
| 20260507052124 | 49 | 25 | 0.0 | 3.0 | 0.00 | 0.01 | 0.01 | 72 | 1012.3 |
| 20260507051618 | 49 | 22 | 1.0 | 5.0 | 0.00 | 0.01 | 0.01 | 72 | 1012.4 |
| 20260507051134 | 49 | 20 | 0.0 | 6.0 | 0.00 | 0.01 | 0.01 | 72 | 1012.4 |
| 20260507050621 | 49 | 39 | 3.0 | 6.0 | 0.00 | 0.01 | 0.01 | 73 | 1012.4 |
| 20260507050117 | 49 | 14 | 2.0 | 5.0 | 0.00 | 0.01 | 0.01 | 73 | 1012.4 |
| 20260507045633 | 49 | 10 | 0.0 | 3.0 | 0.00 | 0.01 | 0.01 | 73 | 1012.4 |
| 20260507045120 | 49 | 5 | 0.0 | 2.0 | 0.00 | 0.01 | 0.01 | 73 | 1012.4 |
| 20260507044615 | 49 | 5 | 0.0 | 3.0 | 0.00 | 0.01 | 0.01 | 73 | 1012.5 |
| 20260507044126 | 49 | 5 | 0.0 | 5.0 | 0.00 | 0.01 | 0.01 | 72 | 1012.6 |
| 20260507043620 | 49 | 10 | 2.0 | 6.0 | 0.00 | 0.01 | 0.01 | 72 | 1012.4 |
| 20260507043133 | 49 | 343 | 3.0 | 6.0 | 0.00 | 0.01 | 0.01 | 73 | 1012.4 |
| 20260507042629 | 50 | 10 | 0.0 | 1.0 | 0.00 | 0.01 | 0.01 | 74 | 1012.4 |
| 20260507042121 | 50 | 10 | 0.0 | 3.0 | 0.00 | 0.01 | 0.01 | 73 | 1012.4 |
| 20260507041656 | 50 | 10 | 0.0 | 4.0 | 0.00 | 0.01 | 0.01 | 74 | 1012.3 |
| 20260507041144 | 50 | 10 | 1.0 | 5.0 | 0.00 | 0.01 | 0.01 | 74 | 1012.5 |
| 20260507040615 | 50 | 14 | 1.0 | 3.0 | 0.00 | 0.01 | 0.01 | 75 | 1012.4 |
| 20260507040148 | 50 | 10 | 0.0 | 2.0 | 0.00 | 0.01 | 0.01 | 75 | 1012.4 |
| 20260507035637 | 50 | 10 | 0.0 | 10.0 | 0.00 | 0.01 | 0.01 | 73 | 1012.7 |
| 20260507035124 | 50 | 10 | 4.0 | 10.0 | 0.00 | 0.01 | 0.01 | 73 | 1012.6 |
| 20260507034639 | 50 | 16 | 2.0 | 5.0 | 0.00 | 0.01 | 0.01 | 75 | 1012.6 |
| 20260507034133 | 51 | 14 | 1.0 | 3.0 | 0.00 | 0.01 | 0.01 | 77 | 1012.3 |
| 20260507033619 | 51 | 5 | 0.0 | 5.0 | 0.00 | 0.01 | 0.01 | 78 | 1012.2 |
| 20260507033133 | 51 | 360 | 0.0 | 8.0 | 0.00 | 0.01 | 0.01 | 77 | 1012.4 |
| 20260507032643 | 51 | 360 | 1.0 | 8.0 | 0.00 | 0.01 | 0.01 | 77 | 1012.2 |
| 20260507032136 | 51 | 324 | 4.0 | 9.0 | 0.00 | 0.01 | 0.01 | 77 | 1012.1 |
| 20260507031624 | 51 | 304 | 2.0 | 7.0 | 0.00 | 0.01 | 0.01 | 78 | 1012.0 |
| 20260507031119 | 51 | 327 | 1.0 | 6.0 | 0.00 | 0.01 | 0.01 | 78 | 1012.1 |
| 20260507030629 | 51 | 16 | 1.0 | 8.0 | 0.00 | 0.01 | 0.01 | 78 | 1012.1 |
| 20260507030145 | 51 | 326 | 4.0 | 8.0 | 0.00 | 0.01 | 0.01 | 79 | 1012.1 |
| 20260507025640 | 51 | 5 | 1.0 | 4.0 | 0.00 | 0.01 | 0.01 | 80 | 1012.1 |
| 20260507025132 | 51 | 25 | 0.0 | 4.0 | 0.00 | 0.01 | 0.01 | 81 | 1012.2 |
| 20260507024640 | 51 | 25 | 0.0 | 5.0 | 0.00 | 0.01 | 0.01 | 81 | 1012.2 |
| 20260507024135 | 51 | 25 | 1.0 | 5.0 | 0.00 | 0.01 | 0.01 | 81 | 1012.2 |
| 20260507023622 | 51 | 38 | 0.0 | 0.0 | 0.00 | 0.01 | 0.01 | 82 | 1012.0 |
| 20260507023117 | 51 | 38 | 0.0 | 0.0 | 0.00 | 0.01 | 0.01 | 81 | 1012.0 |
| 20260507022633 | 51 | 38 | 0.0 | 0.0 | 0.00 | 0.01 | 0.01 | 81 | 1012.0 |
| 20260507022120 | 51 | 38 | 0.0 | 0.0 | 0.00 | 0.01 | 0.01 | 81 | 1011.6 |
| 20260507021655 | 51 | 38 | 0.0 | 0.0 | 0.00 | 0.01 | 0.01 | 81 | 1011.3 |
| 20260507021121 | 51 | 38 | 0.0 | 0.0 | 0.00 | 0.01 | 0.01 | 81 | 1011.4 |
| 20260507020635 | 51 | 38 | 0.0 | 0.0 | 0.00 | 0.01 | 0.01 | 81 | 1011.4 |
| 20260507020122 | 52 | 38 | 0.0 | 0.0 | 0.00 | 0.01 | 0.01 | 81 | 1011.3 |
| 20260507015640 | 52 | 38 | 0.0 | 0.0 | 0.00 | 0.01 | 0.01 | 80 | 1011.4 |
| 20260507015133 | 52 | 38 | 0.0 | 0.0 | 0.00 | 0.01 | 0.01 | 80 | 1011.5 |
| 20260507014621 | 52 | 38 | 0.0 | 0.0 | 0.00 | 0.01 | 0.01 | 80 | 1011.4 |
| 20260507014137 | 52 | 39 | 0.0 | 5.0 | 0.00 | 0.01 | 0.01 | 80 | 1011.4 |
| 20260507013623 | 52 | 31 | 2.0 | 6.0 | 0.00 | 0.01 | 0.01 | 80 | 1011.2 |
| 20260507013153 | 52 | 33 | 3.0 | 6.0 | 0.00 | 0.01 | 0.01 | 80 | 1011.2 |
| 20260507012628 | 52 | 343 | 0.0 | 0.0 | 0.00 | 0.01 | 0.01 | 80 | 1011.3 |
| 20260507012121 | 52 | 327 | 0.0 | 4.0 | 0.00 | 0.01 | 0.01 | 79 | 1011.6 |
| 20260507011615 | 52 | 326 | 1.0 | 4.0 | 0.00 | 0.01 | 0.01 | 79 | 1011.9 |
| 20260507011130 | 52 | 345 | 1.0 | 4.0 | 0.00 | 0.01 | 0.01 | 79 | 1011.6 |
| 20260507010623 | 52 | 314 | 1.0 | 8.0 | 0.00 | 0.01 | 0.01 | 79 | 1011.7 |
| 20260507010136 | 52 | 301 | 5.0 | 8.0 | 0.00 | 0.01 | 0.01 | 80 | 1011.7 |
| 20260507005624 | 52 | 311 | 2.0 | 5.0 | 0.00 | 0.01 | 0.01 | 81 | 1011.7 |
| 20260507005119 | 52 | 310 | 2.0 | 4.0 | 0.00 | 0.01 | 0.01 | 81 | 1011.8 |
| 20260507004653 | 52 | 315 | 0.0 | 3.0 | 0.00 | 0.01 | 0.01 | 81 | 1011.8 |
| 20260507004122 | 52 | 316 | 0.0 | 2.0 | 0.00 | 0.01 | 0.01 | 82 | 1012.0 |
| 20260507003636 | 52 | 309 | 0.0 | 0.0 | 0.00 | 0.01 | 0.01 | 82 | 1012.1 |
| 20260507003124 | 52 | 309 | 0.0 | 0.0 | 0.00 | 0.01 | 0.01 | 82 | 1012.0 |
| 20260507002618 | 52 | 309 | 0.0 | 0.0 | 0.00 | 0.01 | 0.01 | 82 | 1011.9 |
| 20260507002131 | 52 | 309 | 0.0 | 3.0 | 0.00 | 0.01 | 0.01 | 81 | 1011.6 |
| 20260507001640 | 52 | 309 | 0.0 | 3.0 | 0.00 | 0.01 | 0.01 | 81 | 1011.3 |
| 20260507001135 | 52 | 295 | 1.0 | 7.0 | 0.00 | 0.01 | 0.01 | 82 | 1011.3 |
| 20260507000622 | 52 | 290 | 4.0 | 7.0 | 0.00 | 0.01 | 0.01 | 82 | 1011.7 |
| 20260507000135 | 52 | 284 | 0.0 | 10.0 | 0.00 | 0.01 | 0.01 | 82 | 1011.6 |
| 20260506235622 | 52 | 266 | 5.0 | 12.0 | 0.00 | 0.01 | 0.01 | 82 | 1011.7 |
| 20260506235135 | 52 | 298 | 8.0 | 12.0 | 0.00 | 0.01 | 0.01 | 83 | 1011.4 |
| 20260506234622 | 52 | 326 | 8.0 | 11.0 | 0.00 | 0.01 | 0.01 | 83 | 1011.2 |
| 20260506234137 | 53 | 320 | 4.0 | 10.0 | 0.00 | 0.01 | 0.01 | 83 | 1011.1 |
| 20260506233623 | 53 | 322 | 5.0 | 11.0 | 0.00 | 0.01 | 0.01 | 82 | 1011.0 |
| 20260506233117 | 53 | 316 | 7.0 | 11.0 | 0.00 | 0.01 | 0.01 | 82 | 1011.0 |
| 20260506232627 | 53 | 360 | 6.0 | 11.0 | 0.00 | 0.01 | 0.01 | 82 | 1010.9 |
| 20260506232139 | 53 | 316 | 4.0 | 10.0 | 0.00 | 0.01 | 0.01 | 83 | 1010.8 |
| 20260506231632 | 53 | 327 | 2.0 | 12.0 | 0.00 | 0.01 | 0.01 | 83 | 1010.5 |
| 20260506231128 | 53 | 303 | 8.0 | 12.0 | 0.00 | 0.01 | 0.01 | 82 | 1010.5 |
| 20260506230642 | 54 | 305 | 8.0 | 11.0 | 0.00 | 0.01 | 0.01 | 83 | 1010.5 |
| 20260506230156 | 54 | 309 | 7.0 | 11.0 | 0.00 | 0.01 | 0.01 | 83 | 1010.4 |
| 20260506225644 | 54 | 307 | 6.0 | 11.0 | 0.00 | 0.01 | 0.01 | 83 | 1010.3 |
| 20260506225136 | 54 | 305 | 7.0 | 11.0 | 0.00 | 0.01 | 0.01 | 83 | 1010.3 |
| 20260506224622 | 54 | 303 | 5.0 | 13.0 | 0.00 | 0.01 | 0.01 | 83 | 1010.3 |
| 20260506224137 | 54 | 318 | 5.0 | 13.0 | 0.00 | 0.01 | 0.01 | 83 | 1010.3 |
| 20260506223622 | 54 | 14 | 9.0 | 13.0 | 0.00 | 0.01 | 0.01 | 83 | 1010.3 |
| 20260506223118 | 54 | 320 | 1.0 | 5.0 | 0.00 | 0.01 | 0.01 | 83 | 1010.2 |
| 20260506222635 | 54 | 280 | 0.0 | 8.0 | 0.00 | 0.01 | 0.01 | 83 | 1010.2 |
| 20260506222123 | 54 | 280 | 6.0 | 8.0 | 0.00 | 0.01 | 0.01 | 83 | 1010.2 |
| 20260506221638 | 54 | 234 | 3.0 | 8.0 | 0.00 | 0.01 | 0.01 | 83 | 1010.1 |
| 20260506221125 | 54 | 262 | 4.0 | 8.0 | 0.00 | 0.01 | 0.01 | 83 | 1010.2 |
| 20260506220640 | 54 | 278 | 4.0 | 8.0 | 0.01 | 0.01 | 0.01 | 84 | 1010.3 |
| 20260506220132 | 54 | 247 | 5.0 | 9.0 | 0.01 | 0.01 | 0.01 | 83 | 1010.2 |
| 20260506215638 | 54 | 282 | 3.0 | 9.0 | 0.01 | 0.01 | 0.01 | 84 | 1010.1 |
| 20260506215123 | 54 | 277 | 5.0 | 8.0 | 0.01 | 0.01 | 0.01 | 83 | 1010.0 |
| 20260506214638 | 54 | 272 | 5.0 | 10.0 | 0.01 | 0.01 | 0.01 | 84 | 1010.0 |
| 20260506214132 | 54 | 306 | 6.0 | 10.0 | 0.01 | 0.01 | 0.01 | 84 | 1009.9 |
| 20260506213625 | 55 | 309 | 7.0 | 10.0 | 0.01 | 0.01 | 0.01 | 84 | 1009.8 |
| 20260506213117 | 55 | 234 | 2.0 | 10.0 | 0.01 | 0.01 | 0.01 | 84 | 1009.8 |
| 20260506212633 | 55 | 278 | 5.0 | 10.0 | 0.01 | 0.01 | 0.01 | 84 | 1009.6 |
| 20260506212140 | 55 | 305 | 3.0 | 11.0 | 0.01 | 0.01 | 0.01 | 84 | 1009.4 |
| 20260506211633 | 55 | 303 | 5.0 | 12.0 | 0.01 | 0.01 | 0.01 | 83 | 1009.4 |
| 20260506211122 | 55 | 311 | 7.0 | 16.0 | 0.00 | 0.00 | 0.00 | 83 | 1009.3 |
| 20260506210634 | 55 | 332 | 10.0 | 16.0 | 0.00 | 0.00 | 0.00 | 83 | 1009.4 |
| 20260506210121 | 55 | 301 | 8.0 | 16.0 | 0.00 | 0.00 | 0.00 | 82 | 1009.4 |
| 20260506205636 | 56 | 303 | 11.0 | 16.0 | 0.00 | 0.00 | 0.00 | 81 | 1009.4 |
| 20260506205121 | 56 | 305 | 10.0 | 16.0 | 0.00 | 0.00 | 0.00 | 81 | 1009.1 |
| 20260506204616 | 57 | 297 | 8.0 | 15.0 | 0.00 | 0.00 | 0.00 | 81 | 1009.0 |
| 20260506204132 | 57 | 279 | 4.0 | 12.0 | 0.00 | 0.00 | 0.00 | 81 | 1008.9 |
| 20260506203638 | 57 | 334 | 6.0 | 14.0 | 0.00 | 0.00 | 0.00 | 81 | 1008.8 |
| 20260506203124 | 57 | 263 | 9.0 | 14.0 | 0.00 | 0.00 | 0.00 | 80 | 1008.7 |
| 20260506202619 | 58 | 276 | 7.0 | 15.0 | 0.00 | 0.00 | 0.00 | 81 | 1008.7 |
| 20260506202132 | 58 | 257 | 8.0 | 15.0 | 0.00 | 0.00 | 0.00 | 80 | 1008.7 |
| 20260506201640 | 58 | 257 | 9.0 | 15.0 | 0.00 | 0.00 | 0.00 | 80 | 1008.8 |
| 20260506201134 | 59 | 245 | 10.0 | 15.0 | 0.00 | 0.00 | 0.00 | 81 | 1008.8 |
| 20260506200636 | 59 | 253 | 10.0 | 14.0 | 0.00 | 0.00 | 0.00 | 80 | 1008.7 |
| 20260506200151 | 59 | 250 | 8.0 | 14.0 | 0.00 | 0.00 | 0.00 | 81 | 1008.7 |
| 20260506195625 | 59 | 241 | 8.0 | 12.0 | 0.00 | 0.00 | 0.00 | 80 | 1008.7 |
| 20260506195118 | 59 | 232 | 8.0 | 12.0 | 0.00 | 0.00 | 0.00 | 82 | 1008.7 |
| 20260506194632 | 59 | 249 | 6.0 | 10.0 | 0.00 | 0.00 | 0.00 | 83 | 1008.7 |
| 20260506194139 | 59 | 282 | 3.0 | 9.0 | 0.00 | 0.00 | 0.00 | 83 | 1008.6 |
| 20260506193631 | 59 | 280 | 6.0 | 10.0 | 0.00 | 0.00 | 0.00 | 83 | 1008.5 |
| 20260506193120 | 59 | 241 | 7.0 | 14.0 | 0.00 | 0.00 | 0.00 | 83 | 1008.5 |
| 20260506192657 | 59 | 270 | 8.0 | 14.0 | 0.00 | 0.00 | 0.00 | 84 | 1008.4 |
| 20260506192143 | 59 | 242 | 5.0 | 10.0 | 0.00 | 0.00 | 0.00 | 85 | 1008.4 |
| 20260506191635 | 58 | 284 | 2.0 | 14.0 | 0.00 | 0.00 | 0.00 | 85 | 1008.3 |
| 20260506191123 | 58 | 227 | 7.0 | 14.0 | 0.00 | 0.00 | 0.00 | 84 | 1008.3 |
| 20260506190638 | 59 | 273 | 8.0 | 12.0 | 0.00 | 0.00 | 0.00 | 85 | 1008.3 |
| 20260506190124 | 59 | 247 | 3.0 | 7.0 | 0.00 | 0.00 | 0.00 | 85 | 1008.2 |
| 20260506185619 | 59 | 269 | 2.0 | 10.0 | 0.00 | 0.00 | 0.00 | 85 | 1008.1 |
| 20260506185132 | 59 | 220 | 5.0 | 10.0 | 0.00 | 0.00 | 0.00 | 84 | 1008.1 |
| 20260506184620 | 60 | 272 | 3.0 | 8.0 | 0.00 | 0.00 | 0.00 | 84 | 1007.9 |
| 20260506184137 | 60 | 273 | 5.0 | 8.0 | 0.00 | 0.00 | 0.00 | 83 | 1007.9 |
| 20260506183622 | 61 | 270 | 2.0 | 9.0 | 0.00 | 0.00 | 0.00 | 83 | 1007.9 |
| 20260506183153 | 61 | 266 | 3.0 | 10.0 | 0.00 | 0.00 | 0.00 | 83 | 1008.0 |
| 20260506182625 | 61 | 258 | 6.0 | 11.0 | 0.00 | 0.00 | 0.00 | 83 | 1007.9 |
| 20260506182118 | 62 | 244 | 7.0 | 12.0 | 0.00 | 0.00 | 0.00 | 82 | 1008.0 |
| 20260506181633 | 62 | 247 | 6.0 | 12.0 | 0.00 | 0.00 | 0.00 | 82 | 1007.9 |
| 20260506181128 | 62 | 305 | 8.0 | 11.0 | 0.00 | 0.00 | 0.00 | 82 | 1007.9 |
| 20260506180642 | 62 | 213 | 7.0 | 13.0 | 0.00 | 0.00 | 0.00 | 83 | 1007.8 |
| 20260506180135 | 61 | 253 | 8.0 | 14.0 | 0.00 | 0.00 | 0.00 | 83 | 1007.9 |
| 20260506175644 | 61 | 252 | 8.0 | 14.0 | 0.00 | 0.00 | 0.00 | 83 | 1007.9 |
| 20260506175138 | 61 | 273 | 9.0 | 13.0 | 0.00 | 0.00 | 0.00 | 83 | 1007.8 |
| 20260506174624 | 62 | 271 | 9.0 | 18.0 | 0.00 | 0.00 | 0.00 | 83 | 1007.7 |
| 20260506174120 | 62 | 276 | 10.0 | 18.0 | 0.00 | 0.00 | 0.00 | 84 | 1007.7 |
| 20260506173634 | 63 | 274 | 9.0 | 16.0 | 0.00 | 0.00 | 0.00 | 84 | 1007.6 |
| 20260506173121 | 63 | 273 | 9.0 | 16.0 | 0.00 | 0.00 | 0.00 | 85 | 1007.4 |
| 20260506172636 | 62 | 287 | 5.0 | 15.0 | 0.00 | 0.00 | 0.00 | 86 | 1007.4 |
| 20260506172121 | 62 | 237 | 9.0 | 15.0 | 0.00 | 0.00 | 0.00 | 86 | 1007.3 |
| 20260506171636 | 62 | 243 | 5.0 | 9.0 | 0.00 | 0.00 | 0.00 | 86 | 1007.1 |
| 20260506171125 | 62 | 203 | 1.0 | 5.0 | 0.00 | 0.00 | 0.00 | 86 | 1007.0 |
| 20260506170619 | 62 | 187 | 2.0 | 6.0 | 0.00 | 0.00 | 0.00 | 86 | 1007.0 |
| 20260506170134 | 61 | 186 | 3.0 | 7.0 | 0.00 | 0.00 | 0.00 | 86 | 1007.1 |
| 20260506165643 | 61 | 189 | 1.0 | 7.0 | 0.00 | 0.00 | 0.00 | 86 | 1007.0 |
| 20260506165135 | 61 | 183 | 3.0 | 10.0 | 0.00 | 0.00 | 0.00 | 86 | 1007.0 |
| 20260506164622 | 61 | 194 | 5.0 | 8.0 | 0.00 | 0.00 | 0.00 | 86 | 1006.9 |
| 20260506164155 | 60 | 201 | 4.0 | 5.0 | 0.00 | 0.00 | 0.00 | 86 | 1007.0 |
| 20260506163629 | 60 | 212 | 1.0 | 5.0 | 0.00 | 0.00 | 0.00 | 86 | 1007.0 |
| 20260506163124 | 60 | 168 | 1.0 | 5.0 | 0.00 | 0.00 | 0.00 | 86 | 1006.9 |
| 20260506162618 | 60 | 187 | 1.0 | 5.0 | 0.00 | 0.00 | 0.00 | 86 | 1006.9 |
| 20260506162133 | 60 | 188 | 2.0 | 5.0 | 0.00 | 0.00 | 0.00 | 86 | 1007.0 |
| 20260506161639 | 59 | 205 | 1.0 | 5.0 | 0.00 | 0.00 | 0.00 | 86 | 1007.0 |
| 20260506161153 | 59 | 189 | 2.0 | 5.0 | 0.00 | 0.00 | 0.00 | 86 | 1007.0 |
| 20260506160620 | 58 | 209 | 1.0 | 6.0 | 0.00 | 0.00 | 0.00 | 86 | 1007.0 |
| 20260506160134 | 58 | 232 | 2.0 | 6.0 | 0.00 | 0.00 | 0.00 | 86 | 1007.1 |
| 20260506155625 | 58 | 215 | 2.0 | 8.0 | 0.00 | 0.00 | 0.00 | 86 | 1007.1 |
| 20260506155119 | 58 | 194 | 4.0 | 8.0 | 0.00 | 0.00 | 0.00 | 86 | 1007.1 |
| 20260506154654 | 58 | 190 | 2.0 | 5.0 | 0.00 | 0.00 | 0.00 | 86 | 1007.0 |
| 20260506154121 | 58 | 205 | 1.0 | 6.0 | 0.00 | 0.00 | 0.00 | 86 | 1007.0 |
| 20260506153635 | 58 | 206 | 2.0 | 6.0 | 0.00 | 0.00 | 0.00 | 86 | 1007.0 |
| 20260506153122 | 58 | 206 | 1.0 | 6.0 | 0.00 | 0.00 | 0.00 | 86 | 1007.0 |
| 20260506152659 | 58 | 193 | 1.0 | 6.0 | 0.00 | 0.00 | 0.00 | 86 | 1006.9 |
| 20260506152125 | 58 | 203 | 0.0 | 5.0 | 0.00 | 0.00 | 0.00 | 86 | 1006.9 |
| 20260506151619 | 58 | 204 | 1.0 | 5.0 | 0.00 | 0.00 | 0.00 | 86 | 1006.7 |
| 20260506151133 | 58 | 214 | 2.0 | 7.0 | 0.00 | 0.00 | 0.00 | 86 | 1006.6 |
| 20260506150619 | 58 | 209 | 3.0 | 7.0 | 0.00 | 0.00 | 0.00 | 86 | 1006.5 |
| 20260506150114 | 58 | 207 | 3.0 | 7.0 | 0.00 | 0.00 | 0.00 | 86 | 1006.5 |
| 20260506145627 | 58 | 206 | 2.0 | 9.0 | 0.00 | 0.00 | 0.00 | 86 | 1006.4 |
| 20260506145140 | 58 | 246 | 3.0 | 9.0 | 0.00 | 0.00 | 0.00 | 86 | 1006.4 |
| 20260506144628 | 58 | 213 | 2.0 | 9.0 | 0.00 | 0.00 | 0.00 | 86 | 1006.3 |
| 20260506144123 | 58 | 210 | 6.0 | 9.0 | 0.00 | 0.00 | 0.00 | 86 | 1006.1 |
| 20260506143617 | 58 | 222 | 7.0 | 9.0 | 0.00 | 0.00 | 0.00 | 86 | 1006.1 |
| 20260506143130 | 58 | 222 | 6.0 | 9.0 | 0.00 | 0.00 | 0.00 | 86 | 1006.2 |
| 20260506142625 | 58 | 214 | 3.0 | 11.0 | 0.00 | 0.00 | 0.00 | 86 | 1006.1 |
| 20260506142119 | 58 | 203 | 4.0 | 9.0 | 0.00 | 0.00 | 0.00 | 86 | 1006.2 |
| 20260506141634 | 57 | 201 | 3.0 | 9.0 | 0.00 | 0.00 | 0.00 | 86 | 1006.0 |
| 20260506141145 | 57 | 214 | 2.0 | 10.0 | 0.00 | 0.00 | 0.00 | 86 | 1006.0 |
| 20260506140636 | 57 | 193 | 4.0 | 10.0 | 0.00 | 0.00 | 0.00 | 86 | 1006.1 |
| 20260506140121 | 57 | 205 | 5.0 | 10.0 | 0.00 | 0.00 | 0.00 | 86 | 1006.2 |
| 20260506135636 | 57 | 205 | 5.0 | 11.0 | 0.00 | 0.00 | 0.00 | 86 | 1006.3 |
| 20260506135122 | 57 | 216 | 4.0 | 8.0 | 0.00 | 0.00 | 0.00 | 86 | 1006.4 |
| 20260506134617 | 57 | 212 | 3.0 | 8.0 | 0.00 | 0.00 | 0.00 | 86 | 1006.3 |
| 20260506134133 | 57 | 197 | 4.0 | 8.0 | 0.00 | 0.00 | 0.00 | 86 | 1006.5 |
| 20260506133620 | 57 | 203 | 3.0 | 6.0 | 0.00 | 0.00 | 0.00 | 86 | 1006.7 |
| 20260506133134 | 57 | 197 | 3.0 | 5.0 | 0.00 | 0.00 | 0.00 | 86 | 1006.7 |
| 20260506132620 | 57 | 187 | 2.0 | 5.0 | 0.00 | 0.00 | 0.00 | 86 | 1006.6 |
| 20260506132136 | 57 | 198 | 2.0 | 4.0 | 0.00 | 0.00 | 0.00 | 86 | 1006.7 |
| 20260506131642 | 56 | 205 | 1.0 | 4.0 | 0.00 | 0.00 | 0.00 | 86 | 1006.8 |
| 20260506131155 | 56 | 199 | 0.0 | 2.0 | 0.00 | 0.00 | 0.00 | 86 | 1006.8 |
| 20260506130621 | 56 | 199 | 1.0 | 4.0 | 0.00 | 0.00 | 0.00 | 86 | 1006.7 |
| 20260506130116 | 56 | 199 | 1.0 | 4.0 | 0.00 | 0.00 | 0.00 | 86 | 1006.7 |
| 20260506125629 | 56 | 199 | 0.0 | 2.0 | 0.00 | 0.00 | 0.00 | 86 | 1006.8 |
| 20260506125135 | 56 | 201 | 0.0 | 4.0 | 0.00 | 0.00 | 0.00 | 86 | 1006.7 |
| 20260506124628 | 56 | 203 | 2.0 | 4.0 | 0.00 | 0.00 | 0.00 | 86 | 1006.6 |
| 20260506124137 | 56 | 185 | 1.0 | 2.0 | 0.00 | 0.00 | 0.00 | 86 | 1006.7 |
| 20260506123643 | 55 | 185 | 0.0 | 0.0 | 0.00 | 0.00 | 0.00 | 86 | 1006.7 |
| 20260506123115 | 55 | 186 | 0.0 | 1.0 | 0.00 | 0.00 | 0.00 | 86 | 1006.7 |
| 20260506122632 | 55 | 185 | 0.0 | 4.0 | 0.00 | 0.00 | 0.00 | 86 | 1006.7 |
| 20260506122120 | 55 | 185 | 0.0 | 4.0 | 0.00 | 0.00 | 0.00 | 86 | 1006.7 |
| 20260506121634 | 55 | 188 | 0.0 | 3.0 | 0.00 | 0.00 | 0.00 | 86 | 1006.6 |
| 20260506121142 | 55 | 190 | 1.0 | 3.0 | 0.00 | 0.00 | 0.00 | 86 | 1006.9 |
| 20260506120635 | 55 | 192 | 0.0 | 3.0 | 0.00 | 0.00 | 0.00 | 86 | 1006.9 |
| 20260506120142 | 55 | 191 | 0.0 | 3.0 | 0.00 | 0.00 | 0.00 | 86 | 1006.7 |
| 20260506115637 | 55 | 191 | 0.0 | 1.0 | 0.00 | 0.00 | 0.00 | 86 | 1006.4 |
| 20260506115124 | 55 | 191 | 0.0 | 1.0 | 0.00 | 0.00 | 0.00 | 86 | 1006.5 |